Location: Haulchin
(50.3172°N, 3.4360°E)
Time: 07:07:29
(UTC+00:00)

BREEZE-M DEB (TANK) - Pass Details

Date: 23 May 2024
Orbit: 289 x 16912 km, 49.4° (Epoch: 19 June)

Event Time Altitude Azimuth Distance (km) Brightness Sun altitude
Rises 00:04:08 0° 278° (W) 2,034 5.8 -18.9°
Enters shadow 00:04:13 - 278° (W) 1,987 5.7 -18.9°
Exits shadow 00:08:51 38° 155° (SSE) 961 3.6 -18.8°
Drops below altitude 10° 00:13:56 10° 123° (ESE) 3,326 6.5 -18.7°
Sets 00:19:32 0° 119° (ESE) 5,906 7.8 -18.6°
